Location: Great Malvern
(52.1167°N, 2.3167°W)
Time: 03:05:03
(UTC+00:00)

MOS 1 - Pass Details

Date: 18 September 2020
Orbit: 878 x 891 km, 99.1° (Epoch: 22 October)

Event Time Altitude Azimuth Distance (km) Brightness Sun altitude
Exits shadow 19:23:05 - 150° (SSE) 3,121 6.7 -10.9°
Reaches altitude 10° 19:24:33 10° 148° (SSE) 2,554 6.3 -11.2°
Maximum altitude 19:30:10 65° 68° (ENE) 981 4.3 -12.0°
Drops below altitude 10° 19:35:50 10° 348° (NNW) 2,573 7.1 -12.8°
Sets 19:38:15 0° 346° (NNW) 3,517 7.9 -13.2°
